When you browse on this site, cookies collect data to enhance your experience and personalize the content and advertising you see.
Visit our Privacy Policy to learn more. By continuing to use the site, you agree to this use of cookies and data.
  • In France
  • List of Countries
  • For 7 days
  • Water Temperature
  • Weather Map
  • Weather Widgets
  • user-avatar
    Login

    Hourly Weather Tuokou

    Today, 15 September, Sunday

    Time Temperature Precipitation Wind Pressure Humidity
    00:00 +24°C° 0 mm 1 mps 737 mmHg 88%
    01:00 +24°C° 0 mm 1 mps 737 mmHg 85%
    02:00 +23°C° 0 mm 1 mps 737 mmHg 85%
    03:00 +23°C° 0 mm 1 mps 737 mmHg 86%
    04:00 +22°C° 0 mm 1 mps 737 mmHg 86%
    05:00 +23°C° 0 mm 1 mps 737 mmHg 83%
    06:00 +24°C° 0 mm 1 mps 738 mmHg 81%
    07:00 +23°C° 0 mm 0 mps 738 mmHg 81%
    08:00 +27°C° 0 mm 1 mps 738 mmHg 75%
    09:00 +28°C° 0 mm 1 mps 738 mmHg 70%
    10:00 +30°C° 0 mm 1 mps 738 mmHg 64%
    11:00 +31°C° 0 mm 2 mps 737 mmHg 62%
    12:00 +32°C° 0 mm 2 mps 737 mmHg 61%
    13:00 +32°C° 0 mm 2 mps 736 mmHg 60%
    14:00 +32°C° 0 mm 2 mps 735 mmHg 61%
    15:00 +32°C° 0 mm 1 mps 735 mmHg 62%
    16:00 +32°C° 0 mm 1 mps 735 mmHg 63%
    17:00 +31°C° 0 mm 1 mps 735 mmHg 69%
    18:00 +29°C° 0 mm 1 mps 736 mmHg 75%
    19:00 +25°C° 0 mm 0 mps 736 mmHg 81%
    20:00 +25°C° 0 mm 0 mps 736 mmHg 81%
    21:00 +27°C° 0 mm 1 mps 737 mmHg 82%
    22:00 +27°C° 0 mm 1 mps 737 mmHg 83%
    23:00 +26°C° 0 mm 1 mps 737 mmHg 84%

    Tomorrow, 16 September, Monday

    Time Temperature Precipitation Wind Pressure Humidity
    00:00 +26°C° 0 mm 1 mps 737 mmHg 85%
    01:00 +26°C° 0 mm 1 mps 737 mmHg 86%
    02:00 +25°C° 0 mm 1 mps 737 mmHg 87%
    03:00 +25°C° 0 mm 1 mps 737 mmHg 89%
    04:00 +24°C° 0 mm 1 mps 737 mmHg 90%
    05:00 +24°C° 0 mm 1 mps 737 mmHg 88%
    06:00 +25°C° 0 mm 1 mps 738 mmHg 86%
    07:00 +25°C° 0 mm 1 mps 738 mmHg 83%
    08:00 +26°C° 0 mm 1 mps 738 mmHg 78%
    09:00 +28°C° 0 mm 1 mps 738 mmHg 73%
    10:00 +29°C° 0 mm 2 mps 738 mmHg 67%
    11:00 +30°C° 0 mm 2 mps 738 mmHg 64%
    12:00 +31°C° 0 mm 2 mps 737 mmHg 61%
    13:00 +32°C° 0 mm 2 mps 736 mmHg 58%
    14:00 +32°C° 0 mm 2 mps 736 mmHg 60%
    15:00 +32°C° 0 mm 2 mps 735 mmHg 61%
    16:00 +32°C° 0 mm 2 mps 735 mmHg 62%
    17:00 +30°C° 0 mm 2 mps 735 mmHg 69%
    18:00 +28°C° 0 mm 1 mps 735 mmHg 76%
    19:00 +27°C° 0 mm 1 mps 736 mmHg 82%
    20:00 +26°C° 0 mm 1 mps 736 mmHg 84%
    21:00 +25°C° 0 mm 1 mps 737 mmHg 87%
    22:00 +23°C° 0 mm 0 mps 737 mmHg 89%
    23:00 +25°C° 0 mm 1 mps 737 mmHg 90%

    Day after tomorrow, 17 September, Tuesday

    Time Temperature Precipitation Wind Pressure Humidity
    00:00 +24°C° 0 mm 1 mps 737 mmHg 92%
    01:00 +24°C° 0 mm 1 mps 737 mmHg 93%
    02:00 +23°C° 0 mm 1 mps 737 mmHg 94%
    03:00 +23°C° 0 mm 1 mps 737 mmHg 94%
    04:00 +23°C° 0 mm 1 mps 737 mmHg 94%
    05:00 +24°C° 0 mm 1 mps 738 mmHg 91%
    06:00 +24°C° 0 mm 1 mps 738 mmHg 88%
    07:00 +25°C° 0 mm 1 mps 738 mmHg 85%
    08:00 +26°C° 0 mm 1 mps 739 mmHg 80%
    09:00 +28°C° 0 mm 1 mps 739 mmHg 74%
    10:00 +30°C° 0 mm 1 mps 739 mmHg 69%
    11:00 +30°C° 0 mm 1 mps 738 mmHg 66%
    12:00 +31°C° 0 mm 2 mps 738 mmHg 64%
    13:00 +32°C° 0 mm 2 mps 737 mmHg 61%
    14:00 +32°C° 0 mm 2 mps 737 mmHg 62%
    15:00 +32°C° 0 mm 2 mps 737 mmHg 63%
    16:00 +31°C° 0 mm 2 mps 736 mmHg 65%
    17:00 +30°C° 0 mm 2 mps 737 mmHg 71%
    18:00 +28°C° 0 mm 1 mps 738 mmHg 77%
    19:00 +27°C° 0 mm 1 mps 738 mmHg 83%
    20:00 +26°C° 0 mm 1 mps 739 mmHg 83%
    21:00 +26°C° 0 mm 1 mps 739 mmHg 83%
    22:00 +26°C° 0 mm 2 mps 740 mmHg 83%
    23:00 +26°C° 0 mm 1 mps 739 mmHg 84%

    18 September, Wednesday

    Time Temperature Precipitation Wind Pressure Humidity
    00:00 +25°C° 0 mm 1 mps 739 mmHg 84%
    01:00 +25°C° 0 mm 1 mps 739 mmHg 85%
    02:00 +24°C° 0 mm 1 mps 739 mmHg 86%
    03:00 +24°C° 0 mm 1 mps 739 mmHg 88%
    04:00 +23°C° 0 mm 1 mps 739 mmHg 89%
    05:00 +23°C° 0 mm 2 mps 740 mmHg 87%
    06:00 +23°C° 0 mm 2 mps 741 mmHg 85%
    07:00 +23°C° 0 mm 2 mps 741 mmHg 82%
    08:00 +25°C° 0 mm 2 mps 741 mmHg 77%
    09:00 +26°C° 0 mm 3 mps 742 mmHg 72%
    10:00 +27°C° 0 mm 3 mps 742 mmHg 67%
    11:00 +28°C° 0 mm 3 mps 741 mmHg 65%
    12:00 +29°C° 0 mm 3 mps 741 mmHg 63%
    13:00 +30°C° 0 mm 3 mps 740 mmHg 61%
    14:00 +30°C° 0 mm 3 mps 740 mmHg 62%
    15:00 +29°C° 0 mm 3 mps 740 mmHg 63%
    16:00 +29°C° 0 mm 3 mps 739 mmHg 64%
    17:00 +28°C° 0 mm 3 mps 740 mmHg 70%
    18:00 +26°C° 0 mm 2 mps 740 mmHg 76%
    19:00 +25°C° 0 mm 1 mps 740 mmHg 82%
    20:00 +24°C° 0 mm 1 mps 741 mmHg 83%
    21:00 +24°C° 0 mm 2 mps 741 mmHg 84%
    22:00 +23°C° 0 mm 2 mps 741 mmHg 86%
    23:00 +23°C° 0 mm 1 mps 741 mmHg 88%

    19 September, Thursday

    Time Temperature Precipitation Wind Pressure Humidity
    00:00 +22°C° 0 mm 1 mps 741 mmHg 89%
    01:00 +22°C° 0 mm 1 mps 741 mmHg 91%
    02:00 +21°C° 0 mm 1 mps 741 mmHg 91%
    03:00 +21°C° 0 mm 1 mps 740 mmHg 91%
    04:00 +21°C° 0 mm 1 mps 740 mmHg 91%
    05:00 +21°C° 0 mm 1 mps 741 mmHg 88%
    06:00 +22°C° 0 mm 1 mps 741 mmHg 86%
    07:00 +22°C° 0 mm 1 mps 741 mmHg 84%
    08:00 +23°C° 0 mm 1 mps 741 mmHg 78%
    09:00 +25°C° 0 mm 1 mps 741 mmHg 73%
    10:00 +26°C° 0 mm 1 mps 741 mmHg 67%
    11:00 +28°C° 0 mm 1 mps 740 mmHg 62%
    12:00 +30°C° 0 mm 1 mps 739 mmHg 56%
    13:00 +32°C° 0 mm 1 mps 739 mmHg 51%
    14:00 +31°C° 0 mm 1 mps 738 mmHg 52%
    15:00 +31°C° 0 mm 2 mps 738 mmHg 54%
    16:00 +30°C° 0 mm 2 mps 737 mmHg 56%
    17:00 +29°C° 0 mm 2 mps 738 mmHg 60%
    18:00 +27°C° 0 mm 1 mps 738 mmHg 64%
    19:00 +26°C° 0 mm 1 mps 739 mmHg 68%
    20:00 +25°C° 0 mm 1 mps 739 mmHg 71%
    21:00 +24°C° 0 mm 1 mps 740 mmHg 73%
    22:00 +23°C° 0 mm 1 mps 740 mmHg 76%
    23:00 +23°C° 0 mm 1 mps 740 mmHg 77%

    20 September, Friday

    Time Temperature Precipitation Wind Pressure Humidity
    00:00 +22°C° 0 mm 1 mps 740 mmHg 78%
    01:00 +22°C° 0 mm 1 mps 739 mmHg 79%
    02:00 +22°C° 0 mm 1 mps 739 mmHg 79%
    03:00 +22°C° 0 mm 1 mps 739 mmHg 80%
    04:00 +21°C° 0 mm 1 mps 739 mmHg 81%
    05:00 +22°C° 0 mm 1 mps 739 mmHg 80%
    06:00 +22°C° 0 mm 1 mps 740 mmHg 80%
    07:00 +22°C° 0 mm 1 mps 740 mmHg 80%
    08:00 +23°C° 0 mm 1 mps 740 mmHg 78%
    09:00 +23°C° 0 mm 1 mps 740 mmHg 76%
    10:00 +24°C° 0 mm 2 mps 741 mmHg 74%
    11:00 +24°C° 0 mm 2 mps 740 mmHg 69%
    12:00 +25°C° 0 mm 2 mps 740 mmHg 64%
    13:00 +26°C° 0 mm 2 mps 740 mmHg 59%
    14:00 +26°C° 0 mm 3 mps 739 mmHg 59%
    15:00 +26°C° 0 mm 3 mps 739 mmHg 59%
    16:00 +26°C° 0 mm 3 mps 739 mmHg 59%
    17:00 +24°C° 0 mm 2 mps 739 mmHg 64%
    18:00 +23°C° 0 mm 2 mps 739 mmHg 70%
    19:00 +21°C° 0 mm 1 mps 740 mmHg 75%
    20:00 +21°C° 0 mm 1 mps 740 mmHg 77%
    21:00 +20°C° 0 mm 1 mps 740 mmHg 79%
    22:00 +20°C° 0 mm 1 mps 741 mmHg 80%
    23:00 +19°C° 0 mm 1 mps 741 mmHg 82%
    Show more